Погода в Верхнем Турунъю

Россия / Республика Коми     60°23′53″N   52°01′00″E
темп.,
°C
ветер,
м/с
пор.,
м/с
влажн.,
%
обл.,
%
осадки,
мм/ч
давл.,
гПа
погр.,
м
25 февраля, чт
чт2500:00−26ююз129867 0.0 103220
03:00−27ююз229957 0.0 103119
06:00−27ю239934 0.0 102942
09:00−23ю369419 0.0 1027221
12:00−18ююв37860 0.0 1025362
15:00−16ююв48865 0.0 1024455
18:00−20юв399644 0.0 1022239
21:00−22ююв399522 0.0 1022246
26 февраля, пт
пт2600:00−23ююв399635 0.0 1021207
03:00−24ююв389467 0.0 1021234
06:00−24ююв3995100 0.0 1020262
09:00−22ююв4794100 0.0 1019295
12:00−19ююв4991100 0.0 1017426
15:00−17ююв5991100 0.0 1016575
18:00−19юв51294100 0.0 1013529
21:00−20юв51295100 0.1 1012484
27 февраля, сб
сб2700:00−20юв51295100 0.0 1010449
03:00−20вюв51294100 0.0 1010448
06:00−19вюв41295100 0.0 1008477
09:00−17вюв51090100 0.0 1008504
12:00−13вюв4985100 0.0 1008640
15:00−13в488798 0.0 1009557
18:00−16всв389795 0.0 1009186
21:00−17всв389891 0.1 1011214
28 февраля, вс
вс2800:00−19всв3698100 0.1 1012198
03:00−24всв259869 0.1 1014117
06:00−25всв25950 0.0 101497
09:00−20всв35890 0.0 1015246
12:00−15св24840 0.0 1016420
15:00−13ссв24877 0.0 1016426
18:00−18с239749 0.0 101721
21:00−20с129925 0.0 101920
1 марта, пн
пн100:00−21ссз11990 0.0 101920
03:00−21з22980 0.0 101920
06:00−22юз23990 0.0 101838
09:00−17юз36920 0.0 1015239
12:00−11ююз598828 0.0 1012392
15:00−9ююз6139264 0.1 1008466
18:00−9юз61393100 1.0 1003613
21:00−9юз51194100 1.9 1000527